Regional Weather Roundup
Issued by NWS Northern Indiana

Home | Current Version | Previous Version | Graphics & Text | Print | Product List | Glossary On
Versions: 1 2 3 4 5 6 7 8 9 10 11 12 13 14 15 16 17 18 19 20 21 22 23 24 25 26 27 28 29 30 31 32 33 34 35 36 37 38 39 40 41 42 43 44 45 46 47 48 49 50
000
ASUS43 KIWX 312210
RWRIWX

KIWX WEATHER ROUNDUP
NATIONAL WEATHER SERVICE NORTHERN INDIANA
600 PM EDT FRI JUL 31 2015

NOTE: "FAIR" INDICATES FEW OR NO CLOUDS BELOW 12,000 FEET WITH NO
SIGNIFICANT WEATHER AND/OR OBSTRUCTIONS TO VISIBILITY.

* THESE STATIONS ARE NOT UNDER NWS QUALITY CONTROL. THEY ALSO MAY NOT
  REPORT WEATHER SUCH AS PRECIPITATION OR FOG.

INZ001>027-312300-
NORTHERN INDIANA

CITY           SKY/WX    TMP DP  RH WIND       PRES   REMARKS
GARY*          MOSUNNY   86  48  26 NW14G29   29.94S
VALPARAISO     MOSUNNY   85  58  39 N9        29.94S
MICHIGAN CITY* SUNNY     81  54  39 NW10G20   29.94S
LAPORTE*       SUNNY     84  56  37 NW12G17   29.95S
KNOX*          MOSUNNY   82  54  36 NW9G16    29.93S
SOUTH BEND     SUNNY     83  53  35 NW17G26   29.94S
ELKHART*       SUNNY     84  50  30 NW14G21   29.93F
GOSHEN         SUNNY     83  56  39 W18G24    29.92F
MONTICELLO*    SUNNY     85  58  40 W13       29.95S
LOGANSPORT*    SUNNY     84  46  26 NW10G20   29.95S
ROCHESTER*     SUNNY     86  55  35 N6        29.93S
WARSAW*        SUNNY     82  55  39 NW13G20   29.93S
ANGOLA*        SUNNY     82  55  39 NW12      29.92S
FORT WAYNE     MOSUNNY   83  48  29 NW13G21   29.93F
HUNTINGTON*    MOSUNNY   82  64  55 NW5       29.93S
PERU/GRISSOM   MOSUNNY   87  56  34 W18       29.93S
MARION*        MOSUNNY   83  63  50 W14G22    29.94F

$$
INZ028>050-312300-
CENTRAL INDIANA

CITY           SKY/WX    TMP DP  RH WIND       PRES   REMARKS
LAFAYETTE      SUNNY     83  58  42 W12       29.96S
KOKOMO*        MOSUNNY   86  61  42 NW20G25   29.94F
MUNCIE*        PTSUNNY   80  62  54 W20G26    29.95S
INDIANAPOLIS   MOSUNNY   86  61  42 W21       29.97F

$$
MIZ043>046-050>051-056>058-064>065-071>073-077>080-312300-
SOUTHWEST LOWER MICHIGAN

CITY           SKY/WX    TMP DP  RH WIND       PRES   REMARKS
BATTLE CREEK   MOSUNNY   82  53  36 NW16G24   29.92R
BENTON HARBOR  SUNNY     79  56  45 VRB6G16   29.93S
COLDWATER*     MOSUNNY   81  51  35 W15G24    29.91S
HILLSDALE*     MOSUNNY   81  51  35 W17G24    29.92S
HOLLAND        SUNNY     81  53  37 NW13G20   29.92S
GRAND RAPIDS   MOSUNNY   81  49  32 W17G28    29.89S
KALAMAZOO      SUNNY     82  50  32 NW17G28   29.92R
STURGIS*       MOSUNNY   81  55  41 W10G16    29.91F
THREE RIVERS*  FAIR      82  53  36 NW14      29.92S

$$
OHZ001>008-015>018-024>025-312300-
NORTHWEST OHIO

CITY           SKY/WX    TMP DP  RH WIND       PRES   REMARKS
WAUSEON*       FAIR      84  55  37 NW12G21   29.89S
DEFIANCE       SUNNY     86  50  28 W12G24    29.90S
FINDLAY        PTSUNNY   82  61  48 W16G24    29.90R
TOLEDO EXPRESS SUNNY     84  52  33 W14       29.87S
TOLEDO METCALF SUNNY     87  48  25 W22G30    29.87S
LIMA           CLOUDY    78  63  59 W15       29.94R

$$
AND FOR LAKE MICHIGAN COASTAL AND OPEN LAKE BUOY OBSERVATIONS

STATION/POSITION TEMP    WIND        PRES    VSBY  WAVE
                 AIR SEA DIR/SP/G                  HT/PER
                 (F)     (DEG/KT/KT) (MB)    (MI)  (FT/S)
CALUMET HARBOR    86     280/ 11/ 19   N/A
MICHIGAN CITY     80     290/  9/ 10   N/A
BURNS HARBOR      79     350/  5/  9 1013.9F
SAINT JOSEPH      77     320/  7/  9 1014.9S
4 MI NW BRIDGMAN  75 74  360/ 10/ 12   N/A           2/ 4
MICHIGAN CITY     77 74  340/ 12/ 16   N/A           2/ 2

$$
&&



USA.gov is the U.S. government's official web portal to all federal, state and local government web resources and services.